Time,TemperatureF,DewpointF,PressureIn,WindDirection,WindDirectionDegrees,WindSpeedMPH,WindSpeedGustMPH,Humidity,HourlyPrecipIn,Conditions,Clouds,dailyrainin,SoftwareType,DateUTC
2014-01-25 00:02:00,42.3,20.3,30.35,South,173,0.0,0.0,41,0.00,,,0.00,meteohub,2014-01-25 08:02:00,
2014-01-25 00:07:00,42.3,19.6,30.35,South,173,0.0,0.0,40,0.00,,,0.00,meteohub,2014-01-25 08:07:00,
2014-01-25 00:12:00,42.3,19.0,30.35,South,174,0.0,0.0,39,0.00,,,0.00,meteohub,2014-01-25 08:12:00,
2014-01-25 00:17:00,42.3,18.5,30.35,South,173,0.0,0.0,38,0.00,,,0.00,meteohub,2014-01-25 08:17:00,
2014-01-25 00:22:00,42.3,18.5,30.35,South,173,0.0,0.0,38,0.00,,,0.00,meteohub,2014-01-25 08:22:00,
2014-01-25 00:27:00,42.3,18.5,30.35,South,173,0.0,0.0,38,0.00,,,0.00,meteohub,2014-01-25 08:27:00,
2014-01-25 00:32:00,42.3,17.8,30.35,South,173,0.0,0.0,37,0.00,,,0.00,meteohub,2014-01-25 08:32:00,
2014-01-25 00:37:00,42.4,18.0,30.35,South,173,0.0,0.0,37,0.00,,,0.00,meteohub,2014-01-25 08:37:00,
2014-01-25 00:42:00,42.4,18.0,30.34,South,174,0.0,0.0,37,0.00,,,0.00,meteohub,2014-01-25 08:42:00,
2014-01-25 00:47:00,42.6,18.1,30.34,South,174,0.0,0.0,37,0.00,,,0.00,meteohub,2014-01-25 08:47:00,
2014-01-25 00:52:00,42.6,17.6,30.34,South,174,0.0,0.0,36,0.00,,,0.00,meteohub,2014-01-25 08:52:00,
2014-01-25 00:57:00,42.6,17.6,30.34,South,174,0.0,0.0,36,0.00,,,0.00,meteohub,2014-01-25 08:57:00,
2014-01-25 01:02:00,42.8,18.3,30.34,South,174,0.0,0.0,37,0.00,,,0.00,meteohub,2014-01-25 09:02:00,
2014-01-25 01:07:00,42.6,18.1,30.34,South,173,0.0,0.0,37,0.00,,,0.00,meteohub,2014-01-25 09:07:00,
2014-01-25 01:12:00,42.6,17.6,30.34,South,174,0.0,0.0,36,0.00,,,0.00,meteohub,2014-01-25 09:12:00,
2014-01-25 01:17:00,42.8,18.3,30.34,South,173,0.0,0.0,37,0.00,,,0.00,meteohub,2014-01-25 09:17:00,
2014-01-25 01:22:00,42.8,18.9,30.34,South,173,0.0,0.0,38,0.00,,,0.00,meteohub,2014-01-25 09:22:00,
2014-01-25 01:27:00,42.8,18.9,30.34,South,183,0.0,0.0,38,0.00,,,0.00,meteohub,2014-01-25 09:27:00,
2014-01-25 01:32:00,42.8,18.3,30.34,West,270,0.0,0.0,37,0.00,,,0.00,meteohub,2014-01-25 09:32:00,
2014-01-25 01:37:00,42.8,18.3,30.34,West,270,0.0,0.0,37,0.00,,,0.00,meteohub,2014-01-25 09:37:00,
2014-01-25 01:42:00,42.8,18.9,30.34,West,268,0.0,0.0,38,0.00,,,0.00,meteohub,2014-01-25 09:42:00,
2014-01-25 01:47:00,42.6,19.4,30.33,West,269,0.0,0.0,39,0.00,,,0.00,meteohub,2014-01-25 09:47:00,
2014-01-25 01:52:00,42.6,19.4,30.33,West,269,0.0,0.0,39,0.00,,,0.00,meteohub,2014-01-25 09:52:00,
2014-01-25 01:57:00,42.6,19.4,30.33,West,269,0.0,0.0,39,0.00,,,0.00,meteohub,2014-01-25 09:57:00,
2014-01-25 02:02:00,42.4,19.2,30.33,West,269,0.0,0.0,39,0.00,,,0.00,meteohub,2014-01-25 10:02:00,
2014-01-25 02:07:00,42.4,18.7,30.33,WSW,238,0.0,0.0,38,0.00,,,0.00,meteohub,2014-01-25 10:07:00,
2014-01-25 02:12:00,42.4,18.7,30.33,WSW,237,0.0,0.0,38,0.00,,,0.00,meteohub,2014-01-25 10:12:00,
2014-01-25 02:17:00,42.4,18.7,30.33,WSW,241,0.0,0.0,38,0.00,,,0.00,meteohub,2014-01-25 10:17:00,
2014-01-25 02:22:00,42.4,19.2,30.33,WSW,240,0.0,0.0,39,0.00,,,0.00,meteohub,2014-01-25 10:22:00,
2014-01-25 02:27:00,42.3,19.0,30.33,WSW,240,0.0,0.0,39,0.00,,,0.00,meteohub,2014-01-25 10:27:00,
2014-01-25 02:32:00,42.3,19.6,30.33,WSW,239,0.0,0.0,40,0.00,,,0.00,meteohub,2014-01-25 10:32:00,
2014-01-25 02:37:00,42.3,19.6,30.33,WSW,240,0.0,0.0,40,0.00,,,0.00,meteohub,2014-01-25 10:37:00,
2014-01-25 02:42:00,42.1,19.6,30.33,WSW,241,0.0,0.0,40,0.00,,,0.00,meteohub,2014-01-25 10:42:00,
2014-01-25 02:47:00,42.1,19.6,30.33,WSW,240,0.0,0.0,40,0.00,,,0.00,meteohub,2014-01-25 10:47:00,
2014-01-25 02:52:00,41.9,19.4,30.33,WSW,240,0.0,0.0,40,0.00,,,0.00,meteohub,2014-01-25 10:52:00,
2014-01-25 02:57:00,41.7,19.8,30.33,WSW,241,0.0,0.0,41,0.00,,,0.00,meteohub,2014-01-25 10:57:00,
2014-01-25 03:02:00,41.7,19.8,30.33,WSW,240,0.0,0.0,41,0.00,,,0.00,meteohub,2014-01-25 11:02:00,
2014-01-25 03:07:00,41.5,19.0,30.33,WSW,240,0.0,0.0,40,0.00,,,0.00,meteohub,2014-01-25 11:07:00,
2014-01-25 03:12:00,41.5,18.5,30.33,WSW,239,0.0,0.0,39,0.00,,,0.00,meteohub,2014-01-25 11:12:00,
2014-01-25 03:17:00,41.4,18.9,30.33,WSW,241,0.0,0.0,40,0.00,,,0.00,meteohub,2014-01-25 11:17:00,
2014-01-25 03:22:00,41.4,18.9,30.33,WSW,240,0.0,0.0,40,0.00,,,0.00,meteohub,2014-01-25 11:22:00,
2014-01-25 03:27:00,41.4,18.9,30.33,WSW,240,0.0,0.0,40,0.00,,,0.00,meteohub,2014-01-25 11:27:00,
2014-01-25 03:32:00,41.2,19.2,30.33,WSW,240,0.0,0.0,41,0.00,,,0.00,meteohub,2014-01-25 11:32:00,
2014-01-25 03:37:00,41.2,18.7,30.33,WSW,240,0.0,0.0,40,0.00,,,0.00,meteohub,2014-01-25 11:37:00,
2014-01-25 03:42:00,41.2,19.2,30.33,WSW,240,0.0,0.0,41,0.00,,,0.00,meteohub,2014-01-25 11:42:00,
2014-01-25 03:47:00,41.2,19.2,30.33,WSW,240,0.0,0.0,41,0.00,,,0.00,meteohub,2014-01-25 11:47:00,
2014-01-25 03:52:00,41.0,19.6,30.33,WSW,240,0.0,0.0,42,0.00,,,0.00,meteohub,2014-01-25 11:52:00,
2014-01-25 03:57:00,41.0,19.0,30.33,WSW,240,0.0,0.0,41,0.00,,,0.00,meteohub,2014-01-25 11:57:00,
2014-01-25 04:02:00,40.8,18.9,30.33,WSW,240,0.0,0.0,41,0.00,,,0.00,meteohub,2014-01-25 12:02:00,
2014-01-25 04:07:00,40.8,18.3,30.33,WSW,240,0.0,0.0,40,0.00,,,0.00,meteohub,2014-01-25 12:07:00,
2014-01-25 04:12:00,40.8,18.3,30.33,WSW,241,0.0,0.0,40,0.00,,,0.00,meteohub,2014-01-25 12:12:00,
2014-01-25 04:17:00,40.8,17.8,30.33,WSW,240,0.0,0.0,39,0.00,,,0.00,meteohub,2014-01-25 12:17:00,
2014-01-25 04:22:00,40.6,17.6,30.33,WSW,241,0.0,0.0,39,0.00,,,0.00,meteohub,2014-01-25 12:22:00,
2014-01-25 04:27:00,40.6,17.1,30.33,WSW,240,0.0,0.0,38,0.00,,,0.00,meteohub,2014-01-25 12:27:00,
2014-01-25 04:32:00,40.6,17.6,30.33,WSW,240,0.0,0.0,39,0.00,,,0.00,meteohub,2014-01-25 12:32:00,
2014-01-25 04:37:00,40.6,17.6,30.33,WSW,241,0.0,0.0,39,0.00,,,0.00,meteohub,2014-01-25 12:37:00,
2014-01-25 04:42:00,40.6,17.6,30.33,WSW,241,0.0,0.0,39,0.00,,,0.00,meteohub,2014-01-25 12:42:00,
2014-01-25 04:47:00,40.6,18.1,30.33,WSW,240,0.0,0.0,40,0.00,,,0.00,meteohub,2014-01-25 12:47:00,
2014-01-25 04:52:00,40.5,18.0,30.33,WSW,240,0.0,0.0,40,0.00,,,0.00,meteohub,2014-01-25 12:52:00,
2014-01-25 04:57:00,40.5,18.0,30.33,WSW,240,0.0,0.0,40,0.00,,,0.00,meteohub,2014-01-25 12:57:00,
2014-01-25 05:02:00,40.3,18.5,30.33,WSW,240,0.0,0.0,41,0.00,,,0.00,meteohub,2014-01-25 13:02:00,
2014-01-25 05:07:00,39.9,18.1,30.33,WSW,239,0.0,0.0,41,0.00,,,0.00,meteohub,2014-01-25 13:07:00,
2014-01-25 05:12:00,39.9,18.1,30.33,WSW,240,0.0,0.0,41,0.00,,,0.00,meteohub,2014-01-25 13:12:00,
2014-01-25 05:17:00,39.7,17.4,30.33,WSW,239,0.0,0.0,40,0.00,,,0.00,meteohub,2014-01-25 13:17:00,
2014-01-25 05:22:00,39.7,18.0,30.32,WSW,239,0.0,0.0,41,0.00,,,0.00,meteohub,2014-01-25 13:22:00,
2014-01-25 05:27:00,39.6,17.2,30.32,WSW,239,0.0,0.0,40,0.00,,,0.00,meteohub,2014-01-25 13:27:00,
2014-01-25 05:32:00,39.6,17.8,30.32,WSW,239,0.0,0.0,41,0.00,,,0.00,meteohub,2014-01-25 13:32:00,
2014-01-25 05:37:00,39.6,17.2,30.33,WSW,239,0.0,0.0,40,0.00,,,0.00,meteohub,2014-01-25 13:37:00,
2014-01-25 05:42:00,39.6,17.8,30.33,WSW,239,0.0,0.0,41,0.00,,,0.00,meteohub,2014-01-25 13:42:00,
2014-01-25 05:47:00,39.6,17.2,30.33,WSW,239,0.0,0.0,40,0.00,,,0.00,meteohub,2014-01-25 13:47:00,
2014-01-25 05:52:00,39.7,18.0,30.33,WSW,238,0.0,0.0,41,0.00,,,0.00,meteohub,2014-01-25 13:52:00,
2014-01-25 05:57:00,39.7,17.4,30.33,WSW,241,0.0,0.0,40,0.00,,,0.00,meteohub,2014-01-25 13:57:00,
2014-01-25 06:02:00,39.9,16.9,30.33,WSW,239,0.0,0.0,39,0.00,,,0.00,meteohub,2014-01-25 14:02:00,
2014-01-25 06:07:00,40.3,18.0,30.33,WSW,240,0.0,0.0,40,0.00,,,0.00,meteohub,2014-01-25 14:07:00,
2014-01-25 06:12:00,40.6,19.4,30.33,WSW,238,0.0,0.0,42,0.00,,,0.00,meteohub,2014-01-25 14:12:00,
2014-01-25 06:17:00,40.8,21.6,30.33,WSW,240,0.0,0.0,46,0.00,,,0.00,meteohub,2014-01-25 14:17:00,
2014-01-25 06:22:00,41.2,23.9,30.33,SW,228,0.0,0.0,50,0.00,,,0.00,meteohub,2014-01-25 14:22:00,
2014-01-25 06:27:00,41.9,25.2,30.33,South,179,0.0,0.0,51,0.00,,,0.00,meteohub,2014-01-25 14:27:00,
2014-01-25 06:32:00,42.6,25.7,30.33,SSW,198,0.0,0.0,51,0.00,,,0.00,meteohub,2014-01-25 14:32:00,
2014-01-25 06:37:00,43.5,26.6,30.34,SSE,153,0.0,0.0,51,0.00,,,0.00,meteohub,2014-01-25 14:37:00,
2014-01-25 06:42:00,44.1,26.6,30.34,SSE,156,0.0,0.0,50,0.00,,,0.00,meteohub,2014-01-25 14:42:00,
2014-01-25 06:47:00,44.8,25.3,30.33,SE,134,1.0,0.0,46,0.00,,,0.00,meteohub,2014-01-25 14:47:00,
2014-01-25 06:52:00,45.1,25.5,30.34,South,174,0.0,3.0,46,0.00,,,0.00,meteohub,2014-01-25 14:52:00,
2014-01-25 06:57:00,45.3,25.7,30.34,South,174,0.0,3.0,46,0.00,,,0.00,meteohub,2014-01-25 14:57:00,
2014-01-25 07:02:00,45.3,25.7,30.34,South,174,0.0,2.0,46,0.00,,,0.00,meteohub,2014-01-25 15:02:00,
2014-01-25 07:07:00,45.3,26.2,30.34,South,176,0.0,0.0,47,0.00,,,0.00,meteohub,2014-01-25 15:07:00,
2014-01-25 07:12:00,45.1,26.1,30.34,South,176,0.0,0.0,47,0.00,,,0.00,meteohub,2014-01-25 15:12:00,
2014-01-25 07:17:00,45.1,27.7,30.34,South,174,0.0,0.0,50,0.00,,,0.00,meteohub,2014-01-25 15:17:00,
2014-01-25 07:22:00,44.6,25.2,30.34,South,174,0.0,0.0,46,0.00,,,0.00,meteohub,2014-01-25 15:22:00,
2014-01-25 07:27:00,44.4,25.0,30.34,South,176,0.0,0.0,46,0.00,,,0.00,meteohub,2014-01-25 15:27:00,
2014-01-25 07:32:00,44.4,25.5,30.34,South,176,0.0,0.0,47,0.00,,,0.00,meteohub,2014-01-25 15:32:00,
2014-01-25 07:37:00,44.6,26.1,30.34,South,176,0.0,0.0,48,0.00,,,0.00,meteohub,2014-01-25 15:37:00,
2014-01-25 07:42:00,44.8,26.8,30.34,South,176,0.0,0.0,49,0.00,,,0.00,meteohub,2014-01-25 15:42:00,
2014-01-25 07:47:00,45.1,26.6,30.34,South,176,0.0,0.0,48,0.00,,,0.00,meteohub,2014-01-25 15:47:00,
2014-01-25 07:52:00,45.5,27.0,30.34,South,176,0.0,0.0,48,0.00,,,0.00,meteohub,2014-01-25 15:52:00,
2014-01-25 07:57:00,45.9,27.9,30.34,South,176,0.0,0.0,49,0.00,,,0.00,meteohub,2014-01-25 15:57:00,
2014-01-25 08:02:00,45.9,27.9,30.34,South,176,0.0,0.0,49,0.00,,,0.00,meteohub,2014-01-25 16:02:00,
2014-01-25 08:07:00,46.2,26.1,30.34,South,174,0.0,0.0,45,0.00,,,0.00,meteohub,2014-01-25 16:07:00,
2014-01-25 08:12:00,46.6,26.4,30.34,South,173,0.0,0.0,45,0.00,,,0.00,meteohub,2014-01-25 16:12:00,
2014-01-25 08:17:00,46.9,26.8,30.34,South,173,0.0,0.0,45,0.00,,,0.00,meteohub,2014-01-25 16:17:00,
2014-01-25 08:22:00,47.1,27.9,30.34,South,173,0.0,0.0,47,0.00,,,0.00,meteohub,2014-01-25 16:22:00,
2014-01-25 08:27:00,47.1,27.3,30.35,South,173,0.0,0.0,46,0.00,,,0.00,meteohub,2014-01-25 16:27:00,
2014-01-25 08:32:00,47.3,28.0,30.35,South,173,0.0,0.0,47,0.00,,,0.00,meteohub,2014-01-25 16:32:00,
2014-01-25 08:37:00,47.5,28.2,30.35,South,173,0.0,0.0,47,0.00,,,0.00,meteohub,2014-01-25 16:37:00,
2014-01-25 08:42:00,47.7,27.9,30.35,South,174,0.0,0.0,46,0.00,,,0.00,meteohub,2014-01-25 16:42:00,
2014-01-25 08:47:00,48.0,29.3,30.35,South,173,0.0,0.0,48,0.00,,,0.00,meteohub,2014-01-25 16:47:00,
2014-01-25 08:52:00,48.4,31.1,30.34,South,173,0.0,0.0,51,0.00,,,0.00,meteohub,2014-01-25 16:52:00,
2014-01-25 08:57:00,48.7,29.8,30.35,South,173,0.0,0.0,48,0.00,,,0.00,meteohub,2014-01-25 16:57:00,
2014-01-25 09:02:00,49.1,31.8,30.34,South,173,0.0,0.0,51,0.00,,,0.00,meteohub,2014-01-25 17:02:00,
2014-01-25 09:07:00,48.7,29.8,30.35,SE,124,0.0,0.0,48,0.00,,,0.00,meteohub,2014-01-25 17:07:00,
2014-01-25 09:12:00,48.6,28.2,30.34,SE,124,0.0,0.0,45,0.00,,,0.00,meteohub,2014-01-25 17:12:00,
2014-01-25 09:17:00,48.9,32.0,30.34,SE,124,0.0,0.0,52,0.00,,,0.00,meteohub,2014-01-25 17:17:00,
2014-01-25 09:22:00,49.1,32.7,30.34,SE,124,0.0,0.0,53,0.00,,,0.00,meteohub,2014-01-25 17:22:00,
2014-01-25 09:27:00,48.7,31.8,30.34,East,90,0.0,0.0,52,0.00,,,0.00,meteohub,2014-01-25 17:27:00,
2014-01-25 09:32:00,48.9,30.6,30.34,East,90,0.0,0.0,49,0.00,,,0.00,meteohub,2014-01-25 17:32:00,
2014-01-25 09:37:00,49.3,31.5,30.34,East,90,0.0,0.0,50,0.00,,,0.00,meteohub,2014-01-25 17:37:00,
2014-01-25 09:42:00,49.6,31.8,30.34,East,90,0.0,0.0,50,0.00,,,0.00,meteohub,2014-01-25 17:42:00,
2014-01-25 09:47:00,49.8,31.5,30.34,East,89,0.0,0.0,49,0.00,,,0.00,meteohub,2014-01-25 17:47:00,
2014-01-25 09:52:00,49.8,30.4,30.34,East,81,0.0,0.0,47,0.00,,,0.00,meteohub,2014-01-25 17:52:00,
2014-01-25 09:57:00,50.0,30.0,30.34,ENE,72,0.0,0.0,46,0.00,,,0.00,meteohub,2014-01-25 17:57:00,
2014-01-25 10:02:00,50.4,32.4,30.34,ENE,75,0.0,0.0,50,0.00,,,0.00,meteohub,2014-01-25 18:02:00,
2014-01-25 10:07:00,50.9,29.8,30.33,East,80,0.0,0.0,44,0.00,,,0.00,meteohub,2014-01-25 18:07:00,
2014-01-25 10:12:00,51.4,29.7,30.33,East,101,0.0,0.0,43,0.00,,,0.00,meteohub,2014-01-25 18:12:00,
2014-01-25 10:17:00,52.2,29.8,30.33,North,6,2.0,0.0,42,0.00,,,0.00,meteohub,2014-01-25 18:17:00,
2014-01-25 10:22:00,51.4,27.3,30.33,NNE,24,2.0,3.0,39,0.00,,,0.00,meteohub,2014-01-25 18:22:00,
2014-01-25 10:27:00,51.1,28.2,30.33,WNW,283,1.0,4.0,41,0.00,,,0.00,meteohub,2014-01-25 18:27:00,
2014-01-25 10:32:00,51.1,27.7,30.33,West,275,1.0,4.0,40,0.00,,,0.00,meteohub,2014-01-25 18:32:00,
2014-01-25 10:37:00,51.1,27.7,30.33,NNW,340,1.0,4.0,40,0.00,,,0.00,meteohub,2014-01-25 18:37:00,
2014-01-25 10:42:00,51.3,26.6,30.33,NNW,333,1.0,4.0,38,0.00,,,0.00,meteohub,2014-01-25 18:42:00,
2014-01-25 10:47:00,51.3,27.7,30.33,WNW,296,0.0,4.0,40,0.00,,,0.00,meteohub,2014-01-25 18:47:00,
2014-01-25 10:52:00,51.8,27.7,30.33,NW,323,2.0,3.0,39,0.00,,,0.00,meteohub,2014-01-25 18:52:00,
2014-01-25 10:57:00,51.4,27.3,30.32,North,354,0.0,4.0,39,0.00,,,0.00,meteohub,2014-01-25 18:57:00,
2014-01-25 11:02:00,51.6,28.0,30.32,NNW,330,2.0,6.0,40,0.00,,,0.00,meteohub,2014-01-25 19:02:00,
2014-01-25 11:07:00,52.0,28.4,30.32,NNE,30,3.0,6.0,40,0.00,,,0.00,meteohub,2014-01-25 19:07:00,
2014-01-25 11:12:00,52.3,29.3,30.32,ENE,76,0.0,4.0,41,0.00,,,0.00,meteohub,2014-01-25 19:12:00,
2014-01-25 11:17:00,52.9,29.8,30.32,SSW,201,0.0,4.0,41,0.00,,,0.00,meteohub,2014-01-25 19:17:00,
2014-01-25 11:22:00,53.4,28.4,30.32,West,277,3.0,5.0,38,0.00,,,0.00,meteohub,2014-01-25 19:22:00,
2014-01-25 11:32:00,53.1,26.8,30.31,West,273,2.0,8.0,36,0.00,,,0.00,meteohub,2014-01-25 19:32:00,
2014-01-25 11:37:00,53.8,26.8,30.31,NNE,15,1.0,8.0,35,0.00,,,0.00,meteohub,2014-01-25 19:37:00,
2014-01-25 11:42:00,54.0,26.2,30.31,NNE,17,0.0,8.0,34,0.00,,,0.00,meteohub,2014-01-25 19:42:00,
2014-01-25 11:47:00,53.6,25.2,30.30,NNE,12,6.0,8.0,33,0.00,,,0.00,meteohub,2014-01-25 19:47:00,
2014-01-25 11:52:00,54.0,26.2,30.30,ESE,102,0.0,8.0,34,0.00,,,0.00,meteohub,2014-01-25 19:52:00,
2014-01-25 11:57:00,54.3,25.9,30.30,North,6,0.0,8.0,33,0.00,,,0.00,meteohub,2014-01-25 19:57:00,
2014-01-25 12:02:00,55.6,27.0,30.30,SW,214,0.0,7.0,33,0.00,,,0.00,meteohub,2014-01-25 20:02:00,
2014-01-25 12:07:00,55.4,25.3,30.29,NE,38,1.0,6.0,31,0.00,,,0.00,meteohub,2014-01-25 20:07:00,
2014-01-25 12:12:00,55.2,26.6,30.29,NW,307,2.0,4.0,33,0.00,,,0.00,meteohub,2014-01-25 20:12:00,
2014-01-25 12:17:00,54.7,26.1,30.29,North,6,3.0,6.0,33,0.00,,,0.00,meteohub,2014-01-25 20:17:00,
2014-01-25 12:22:00,53.8,26.8,30.29,West,259,2.0,6.0,35,0.00,,,0.00,meteohub,2014-01-25 20:22:00,
2014-01-25 12:27:00,54.1,25.7,30.28,West,278,4.0,6.0,33,0.00,,,0.00,meteohub,2014-01-25 20:27:00,
2014-01-25 12:32:00,54.0,24.8,30.28,NNE,30,3.0,6.0,32,0.00,,,0.00,meteohub,2014-01-25 20:32:00,
2014-01-25 12:37:00,54.0,25.5,30.28,NE,44,4.0,6.0,33,0.00,,,0.00,meteohub,2014-01-25 20:37:00,
2014-01-25 12:42:00,53.6,23.7,30.28,NW,308,4.0,6.0,31,0.00,,,0.00,meteohub,2014-01-25 20:42:00,
2014-01-25 12:47:00,53.1,23.9,30.28,West,264,0.0,8.0,32,0.00,,,0.00,meteohub,2014-01-25 20:47:00,
2014-01-25 12:52:00,52.9,24.6,30.28,NW,309,1.0,8.0,33,0.00,,,0.00,meteohub,2014-01-25 20:52:00,
2014-01-25 12:57:00,53.2,25.5,30.28,NE,37,3.0,8.0,34,0.00,,,0.00,meteohub,2014-01-25 20:57:00,
2014-01-25 13:02:00,53.4,25.7,30.27,North,349,0.0,6.0,34,0.00,,,0.00,meteohub,2014-01-25 21:02:00,
2014-01-25 13:07:00,54.0,24.8,30.27,West,274,2.0,5.0,32,0.00,,,0.00,meteohub,2014-01-25 21:07:00,
2014-01-25 13:12:00,53.8,25.3,30.27,North,350,2.0,5.0,33,0.00,,,0.00,meteohub,2014-01-25 21:12:00,
2014-01-25 13:17:00,53.1,24.8,30.27,NW,314,1.0,5.0,33,0.00,,,0.00,meteohub,2014-01-25 21:17:00,
2014-01-25 13:22:00,53.1,24.8,30.27,West,275,0.0,5.0,33,0.00,,,0.00,meteohub,2014-01-25 21:22:00,
2014-01-25 13:27:00,53.1,24.8,30.27,NNE,22,1.0,4.0,33,0.00,,,0.00,meteohub,2014-01-25 21:27:00,
2014-01-25 13:32:00,52.9,25.3,30.27,NW,304,0.0,4.0,34,0.00,,,0.00,meteohub,2014-01-25 21:32:00,
2014-01-25 13:37:00,52.9,25.3,30.27,NNE,33,0.0,5.0,34,0.00,,,0.00,meteohub,2014-01-25 21:37:00,
2014-01-25 13:42:00,52.9,25.9,30.27,North,0,0.0,5.0,35,0.00,,,0.00,meteohub,2014-01-25 21:42:00,
2014-01-25 13:47:00,52.5,25.7,30.27,West,262,0.0,5.0,35,0.00,,,0.00,meteohub,2014-01-25 21:47:00,
2014-01-25 13:52:00,52.3,25.5,30.27,NE,43,0.0,4.0,35,0.00,,,0.00,meteohub,2014-01-25 21:52:00,
2014-01-25 13:57:00,52.2,25.3,30.27,WNW,292,0.0,3.0,35,0.00,,,0.00,meteohub,2014-01-25 21:57:00,
2014-01-25 14:02:00,52.2,26.1,30.27,NNE,25,0.0,3.0,36,0.00,,,0.00,meteohub,2014-01-25 22:02:00,
2014-01-25 14:07:00,52.3,26.2,30.26,NW,309,3.0,3.0,36,0.00,,,0.00,meteohub,2014-01-25 22:07:00,
2014-01-25 14:12:00,52.2,26.1,30.26,WNW,284,1.0,5.0,36,0.00,,,0.00,meteohub,2014-01-25 22:12:00,
2014-01-25 14:17:00,52.2,25.3,30.26,WSW,257,0.0,6.0,35,0.00,,,0.00,meteohub,2014-01-25 22:17:00,
2014-01-25 14:22:00,52.3,26.2,30.26,NNE,32,0.0,6.0,36,0.00,,,0.00,meteohub,2014-01-25 22:22:00,
2014-01-25 14:27:00,52.5,25.7,30.26,NE,36,0.0,3.0,35,0.00,,,0.00,meteohub,2014-01-25 22:27:00,
2014-01-25 14:32:00,52.2,24.6,30.27,North,355,0.0,7.0,34,0.00,,,0.00,meteohub,2014-01-25 22:32:00,
2014-01-25 14:37:00,52.2,24.6,30.27,NE,40,0.0,7.0,34,0.00,,,0.00,meteohub,2014-01-25 22:37:00,
2014-01-25 14:42:00,52.2,25.3,30.26,NNE,12,0.0,7.0,35,0.00,,,0.00,meteohub,2014-01-25 22:42:00,
2014-01-25 14:47:00,52.2,26.1,30.26,NNE,22,0.0,2.0,36,0.00,,,0.00,meteohub,2014-01-25 22:47:00,
2014-01-25 14:52:00,52.3,26.2,30.26,NNE,15,0.0,0.0,36,0.00,,,0.00,meteohub,2014-01-25 22:52:00,
2014-01-25 14:57:00,52.3,25.5,30.26,NE,43,0.0,0.0,35,0.00,,,0.00,meteohub,2014-01-25 22:57:00,
2014-01-25 15:02:00,52.3,24.8,30.26,WNW,289,0.0,4.0,34,0.00,,,0.00,meteohub,2014-01-25 23:02:00,
2014-01-25 15:07:00,52.2,24.6,30.26,NW,311,1.0,4.0,34,0.00,,,0.00,meteohub,2014-01-25 23:07:00,
2014-01-25 15:12:00,52.0,24.4,30.26,NE,39,2.0,4.0,34,0.00,,,0.00,meteohub,2014-01-25 23:12:00,
2014-01-25 15:17:00,52.0,25.2,30.26,NNW,329,0.0,4.0,35,0.00,,,0.00,meteohub,2014-01-25 23:17:00,
2014-01-25 15:22:00,51.8,24.3,30.26,NW,311,0.0,4.0,34,0.00,,,0.00,meteohub,2014-01-25 23:22:00,
2014-01-25 15:27:00,51.6,24.1,30.26,NNW,335,0.0,3.0,34,0.00,,,0.00,meteohub,2014-01-25 23:27:00,
2014-01-25 15:32:00,51.4,24.6,30.26,NNW,334,0.0,3.0,35,0.00,,,0.00,meteohub,2014-01-25 23:32:00,
2014-01-25 15:37:00,51.3,24.6,30.26,WNW,294,1.0,3.0,35,0.00,,,0.00,meteohub,2014-01-25 23:37:00,
2014-01-25 15:42:00,51.1,23.7,30.26,NW,304,3.0,3.0,34,0.00,,,0.00,meteohub,2014-01-25 23:42:00,
2014-01-25 15:47:00,51.1,23.0,30.26,NW,304,0.0,3.0,33,0.00,,,0.00,meteohub,2014-01-25 23:47:00,
2014-01-25 15:52:00,51.1,23.7,30.26,WNW,293,0.0,3.0,34,0.00,,,0.00,meteohub,2014-01-25 23:52:00,
2014-01-25 15:57:00,50.7,22.6,30.26,West,277,0.0,3.0,33,0.00,,,0.00,meteohub,2014-01-25 23:57:00,
2014-01-25 16:02:00,50.5,23.2,30.26,NNE,26,0.0,3.0,34,0.00,,,0.00,meteohub,2014-01-26 00:02:00,
2014-01-25 16:07:00,50.5,23.2,30.26,WNW,291,0.0,2.0,34,0.00,,,0.00,meteohub,2014-01-26 00:07:00,
2014-01-25 16:12:00,50.5,23.2,30.26,NNW,336,0.0,2.0,34,0.00,,,0.00,meteohub,2014-01-26 00:12:00,
2014-01-25 16:17:00,50.4,22.3,30.26,NW,304,0.0,2.0,33,0.00,,,0.00,meteohub,2014-01-26 00:17:00,
2014-01-25 16:22:00,50.4,22.3,30.26,WNW,285,0.0,0.0,33,0.00,,,0.00,meteohub,2014-01-26 00:22:00,
2014-01-25 16:27:00,50.2,22.1,30.26,NNE,15,0.0,0.0,33,0.00,,,0.00,meteohub,2014-01-26 00:27:00,
2014-01-25 16:32:00,50.0,22.6,30.26,NW,316,0.0,0.0,34,0.00,,,0.00,meteohub,2014-01-26 00:32:00,
2014-01-25 16:37:00,49.8,22.6,30.25,West,281,0.0,5.0,34,0.00,,,0.00,meteohub,2014-01-26 00:37:00,
2014-01-25 16:42:00,49.6,23.7,30.25,West,281,0.0,5.0,36,0.00,,,0.00,meteohub,2014-01-26 00:42:00,
2014-01-25 16:47:00,49.1,22.6,30.25,WNW,287,0.0,5.0,35,0.00,,,0.00,meteohub,2014-01-26 00:47:00,
2014-01-25 16:52:00,48.7,23.5,30.25,WNW,284,0.0,1.0,37,0.00,,,0.00,meteohub,2014-01-26 00:52:00,
2014-01-25 16:57:00,48.6,23.5,30.25,WSW,257,0.0,1.0,37,0.00,,,0.00,meteohub,2014-01-26 00:57:00,
2014-01-25 17:02:00,48.4,23.4,30.25,WSW,257,0.0,1.0,37,0.00,,,0.00,meteohub,2014-01-26 01:02:00,
2014-01-25 17:07:00,47.8,23.5,30.25,West,262,0.0,0.0,38,0.00,,,0.00,meteohub,2014-01-26 01:07:00,
2014-01-25 17:12:00,47.7,23.4,30.25,West,262,0.0,0.0,38,0.00,,,0.00,meteohub,2014-01-26 01:12:00,
2014-01-25 17:17:00,47.5,22.5,30.25,West,263,0.0,0.0,37,0.00,,,0.00,meteohub,2014-01-26 01:17:00,
2014-01-25 17:22:00,47.5,22.5,30.25,West,269,0.0,0.0,37,0.00,,,0.00,meteohub,2014-01-26 01:22:00,
2014-01-25 17:27:00,47.7,22.1,30.25,West,266,0.0,0.0,36,0.00,,,0.00,meteohub,2014-01-26 01:27:00,
2014-01-25 17:32:00,47.3,22.3,30.25,West,265,0.0,0.0,37,0.00,,,0.00,meteohub,2014-01-26 01:32:00,
2014-01-25 17:37:00,46.9,22.1,30.25,West,266,0.0,0.0,37,0.00,,,0.00,meteohub,2014-01-26 01:37:00,
2014-01-25 17:42:00,46.9,22.1,30.26,West,266,0.0,0.0,37,0.00,,,0.00,meteohub,2014-01-26 01:42:00,
2014-01-25 17:47:00,46.8,21.9,30.26,West,266,0.0,0.0,37,0.00,,,0.00,meteohub,2014-01-26 01:47:00,
2014-01-25 17:52:00,46.6,22.3,30.26,West,265,0.0,0.0,38,0.00,,,0.00,meteohub,2014-01-26 01:52:00,
2014-01-25 17:57:00,46.2,21.9,30.26,West,266,0.0,0.0,38,0.00,,,0.00,meteohub,2014-01-26 01:57:00,
2014-01-25 18:02:00,46.2,21.9,30.26,West,265,0.0,0.0,38,0.00,,,0.00,meteohub,2014-01-26 02:02:00,
2014-01-25 18:07:00,46.0,22.5,30.26,West,266,0.0,0.0,39,0.00,,,0.00,meteohub,2014-01-26 02:07:00,
2014-01-25 18:12:00,45.9,22.3,30.27,West,266,0.0,0.0,39,0.00,,,0.00,meteohub,2014-01-26 02:12:00,
2014-01-25 18:17:00,45.7,22.1,30.27,West,266,0.0,0.0,39,0.00,,,0.00,meteohub,2014-01-26 02:17:00,
2014-01-25 18:22:00,45.7,22.1,30.27,West,266,0.0,0.0,39,0.00,,,0.00,meteohub,2014-01-26 02:22:00,
2014-01-25 18:27:00,45.5,21.9,30.27,West,266,0.0,0.0,39,0.00,,,0.00,meteohub,2014-01-26 02:27:00,
2014-01-25 18:32:00,45.3,22.5,30.27,West,266,0.0,0.0,40,0.00,,,0.00,meteohub,2014-01-26 02:32:00,
2014-01-25 18:37:00,45.3,22.5,30.27,West,266,0.0,0.0,40,0.00,,,0.00,meteohub,2014-01-26 02:37:00,
2014-01-25 18:42:00,45.1,22.3,30.27,West,266,0.0,0.0,40,0.00,,,0.00,meteohub,2014-01-26 02:42:00,
2014-01-25 18:47:00,45.1,21.7,30.27,West,265,0.0,0.0,39,0.00,,,0.00,meteohub,2014-01-26 02:47:00,
2014-01-25 18:52:00,45.1,21.7,30.27,West,265,0.0,0.0,39,0.00,,,0.00,meteohub,2014-01-26 02:52:00,
2014-01-25 18:57:00,45.1,21.7,30.26,West,266,0.0,0.0,39,0.00,,,0.00,meteohub,2014-01-26 02:57:00,
2014-01-25 19:02:00,45.0,21.6,30.27,West,266,0.0,0.0,39,0.00,,,0.00,meteohub,2014-01-26 03:02:00,
2014-01-25 19:07:00,45.0,21.6,30.26,West,265,0.0,0.0,39,0.00,,,0.00,meteohub,2014-01-26 03:07:00,
2014-01-25 19:12:00,45.0,21.6,30.27,West,266,0.0,0.0,39,0.00,,,0.00,meteohub,2014-01-26 03:12:00,
2014-01-25 19:17:00,45.0,20.8,30.27,West,266,0.0,0.0,38,0.00,,,0.00,meteohub,2014-01-26 03:17:00,
2014-01-25 19:22:00,44.8,20.7,30.27,West,266,0.0,0.0,38,0.00,,,0.00,meteohub,2014-01-26 03:22:00,
2014-01-25 19:27:00,44.8,20.1,30.27,West,265,0.0,0.0,37,0.00,,,0.00,meteohub,2014-01-26 03:27:00,
2014-01-25 19:32:00,44.8,20.1,30.27,West,266,0.0,0.0,37,0.00,,,0.00,meteohub,2014-01-26 03:32:00,
2014-01-25 19:37:00,44.8,20.1,30.27,West,266,0.0,0.0,37,0.00,,,0.00,meteohub,2014-01-26 03:37:00,
2014-01-25 19:42:00,44.8,20.1,30.27,West,265,0.0,0.0,37,0.00,,,0.00,meteohub,2014-01-26 03:42:00,
2014-01-25 19:47:00,44.8,20.1,30.27,West,265,0.0,0.0,37,0.00,,,0.00,meteohub,2014-01-26 03:47:00,
2014-01-25 19:52:00,45.0,20.8,30.27,West,265,0.0,0.0,38,0.00,,,0.00,meteohub,2014-01-26 03:52:00,
2014-01-25 19:57:00,44.8,20.7,30.27,West,265,0.0,0.0,38,0.00,,,0.00,meteohub,2014-01-26 03:57:00,
2014-01-25 20:02:00,44.8,20.7,30.27,West,266,0.0,0.0,38,0.00,,,0.00,meteohub,2014-01-26 04:02:00,
2014-01-25 20:07:00,44.8,21.4,30.27,West,266,0.0,0.0,39,0.00,,,0.00,meteohub,2014-01-26 04:07:00,
2014-01-25 20:12:00,44.8,21.9,30.27,West,265,0.0,0.0,40,0.00,,,0.00,meteohub,2014-01-26 04:12:00,
2014-01-25 20:17:00,44.8,21.9,30.26,West,266,0.0,0.0,40,0.00,,,0.00,meteohub,2014-01-26 04:17:00,
2014-01-25 20:22:00,44.4,22.1,30.27,West,266,0.0,0.0,41,0.00,,,0.00,meteohub,2014-01-26 04:22:00,
2014-01-25 20:27:00,44.4,22.1,30.26,West,265,0.0,0.0,41,0.00,,,0.00,meteohub,2014-01-26 04:27:00,
2014-01-25 20:32:00,44.6,22.3,30.26,West,266,0.0,0.0,41,0.00,,,0.00,meteohub,2014-01-26 04:32:00,
2014-01-25 20:37:00,44.4,21.6,30.26,West,266,0.0,0.0,40,0.00,,,0.00,meteohub,2014-01-26 04:37:00,
2014-01-25 20:42:00,44.4,22.1,30.26,West,265,0.0,0.0,41,0.00,,,0.00,meteohub,2014-01-26 04:42:00,
2014-01-25 20:47:00,44.4,22.1,30.26,West,266,0.0,0.0,41,0.00,,,0.00,meteohub,2014-01-26 04:47:00,
2014-01-25 20:52:00,44.4,22.8,30.25,West,266,0.0,0.0,42,0.00,,,0.00,meteohub,2014-01-26 04:52:00,
2014-01-25 20:57:00,44.2,23.2,30.25,West,265,0.0,0.0,43,0.00,,,0.00,meteohub,2014-01-26 04:57:00,
2014-01-25 21:02:00,44.2,23.2,30.25,West,263,0.0,0.0,43,0.00,,,0.00,meteohub,2014-01-26 05:02:00,
2014-01-25 21:07:00,44.2,23.7,30.25,West,263,0.0,0.0,44,0.00,,,0.00,meteohub,2014-01-26 05:07:00,
2014-01-25 21:12:00,44.1,23.5,30.25,West,263,0.0,0.0,44,0.00,,,0.00,meteohub,2014-01-26 05:12:00,
2014-01-25 21:17:00,44.2,23.7,30.25,West,264,0.0,0.0,44,0.00,,,0.00,meteohub,2014-01-26 05:17:00,
2014-01-25 21:22:00,44.4,23.9,30.26,WSW,243,0.0,0.0,44,0.00,,,0.00,meteohub,2014-01-26 05:22:00,
2014-01-25 21:27:00,44.8,24.3,30.25,WSW,243,0.0,0.0,44,0.00,,,0.00,meteohub,2014-01-26 05:27:00,
2014-01-25 21:32:00,44.8,24.3,30.25,WSW,243,0.0,0.0,44,0.00,,,0.00,meteohub,2014-01-26 05:32:00,
2014-01-25 21:37:00,44.8,24.3,30.25,WSW,243,0.0,0.0,44,0.00,,,0.00,meteohub,2014-01-26 05:37:00,
2014-01-25 21:42:00,45.0,24.4,30.25,WSW,243,0.0,0.0,44,0.00,,,0.00,meteohub,2014-01-26 05:42:00,
2014-01-25 21:47:00,45.0,24.4,30.25,WSW,245,0.0,0.0,44,0.00,,,0.00,meteohub,2014-01-26 05:47:00,
2014-01-25 21:52:00,45.0,24.4,30.25,WSW,243,0.0,0.0,44,0.00,,,0.00,meteohub,2014-01-26 05:52:00,
2014-01-25 21:57:00,45.0,24.4,30.25,WSW,243,0.0,0.0,44,0.00,,,0.00,meteohub,2014-01-26 05:57:00,
2014-01-25 22:02:00,45.0,24.4,30.25,WSW,243,0.0,0.0,44,0.00,,,0.00,meteohub,2014-01-26 06:02:00,
2014-01-25 22:07:00,45.0,24.4,30.25,WSW,243,0.0,0.0,44,0.00,,,0.00,meteohub,2014-01-26 06:07:00,
2014-01-25 22:12:00,45.1,24.4,30.25,WSW,243,0.0,0.0,44,0.00,,,0.00,meteohub,2014-01-26 06:12:00,
2014-01-25 22:17:00,45.1,24.4,30.25,WSW,243,0.0,0.0,44,0.00,,,0.00,meteohub,2014-01-26 06:17:00,
2014-01-25 22:22:00,45.5,24.8,30.25,WSW,241,0.0,0.0,44,0.00,,,0.00,meteohub,2014-01-26 06:22:00,
2014-01-25 22:27:00,45.5,24.8,30.25,WSW,242,0.0,0.0,44,0.00,,,0.00,meteohub,2014-01-26 06:27:00,
2014-01-25 22:32:00,45.7,25.0,30.25,WSW,241,0.0,0.0,44,0.00,,,0.00,meteohub,2014-01-26 06:32:00,
2014-01-25 22:37:00,45.9,25.2,30.25,WSW,242,0.0,0.0,44,0.00,,,0.00,meteohub,2014-01-26 06:37:00,
2014-01-25 22:42:00,45.9,25.2,30.25,WSW,241,0.0,0.0,44,0.00,,,0.00,meteohub,2014-01-26 06:42:00,
2014-01-25 22:47:00,46.0,25.3,30.25,WSW,242,0.0,0.0,44,0.00,,,0.00,meteohub,2014-01-26 06:47:00,
2014-01-25 22:52:00,46.2,25.0,30.25,SW,225,0.0,0.0,43,0.00,,,0.00,meteohub,2014-01-26 06:52:00,
2014-01-25 22:57:00,46.2,25.0,30.25,SW,226,0.0,0.0,43,0.00,,,0.00,meteohub,2014-01-26 06:57:00,
2014-01-25 23:02:00,46.2,25.0,30.25,SW,224,0.0,0.0,43,0.00,,,0.00,meteohub,2014-01-26 07:02:00,
2014-01-25 23:07:00,46.2,25.0,30.25,SW,224,0.0,0.0,43,0.00,,,0.00,meteohub,2014-01-26 07:07:00,
2014-01-25 23:12:00,46.2,25.0,30.25,SW,226,0.0,0.0,43,0.00,,,0.00,meteohub,2014-01-26 07:12:00,
2014-01-25 23:17:00,46.0,25.3,30.25,SW,225,0.0,0.0,44,0.00,,,0.00,meteohub,2014-01-26 07:17:00,
2014-01-25 23:22:00,45.9,25.2,30.25,SW,225,0.0,0.0,44,0.00,,,0.00,meteohub,2014-01-26 07:22:00,
2014-01-25 23:27:00,45.9,25.2,30.24,SW,226,0.0,0.0,44,0.00,,,0.00,meteohub,2014-01-26 07:27:00,
2014-01-25 23:32:00,45.9,25.2,30.24,SW,225,0.0,0.0,44,0.00,,,0.00,meteohub,2014-01-26 07:32:00,
2014-01-25 23:37:00,45.7,25.0,30.24,SW,226,0.0,0.0,44,0.00,,,0.00,meteohub,2014-01-26 07:37:00,
2014-01-25 23:42:00,45.7,25.0,30.24,SW,225,0.0,0.0,44,0.00,,,0.00,meteohub,2014-01-26 07:42:00,
2014-01-25 23:47:00,45.5,24.8,30.23,SW,225,0.0,0.0,44,0.00,,,0.00,meteohub,2014-01-26 07:47:00,
2014-01-25 23:52:00,45.5,25.3,30.23,SW,225,0.0,0.0,45,0.00,,,0.00,meteohub,2014-01-26 07:52:00,
2014-01-25 23:57:00,45.9,25.2,30.23,SW,225,0.0,0.0,44,0.00,,,0.00,meteohub,2014-01-26 07:57:00,